Location: Franzen
(48.6167°N, 15.3833°E)
Time: 22:11:51
(UTC+00:00)

Transit 2A - Pass Details

Date: 07 August 2021
Orbit: 594 x 964 km, 66.7° (Epoch: 26 September)

Event Time Altitude Azimuth Distance (km) Brightness Sun altitude
Rises 07:00:35 0° 291° (WNW) 2,972 8.5 31.3°
Reaches altitude 10° 07:04:29 10° 325° (NW) 2,144 8.0 31.9°
Maximum altitude 07:06:12 12° 346° (NNW) 2,070 8.1 32.2°
Drops below altitude 10° 07:07:58 10° 6° (N) 2,225 8.4 32.5°
Sets 07:12:15 0° 39° (NE) 3,257 9.6 33.2°
